�������l�o���
Date,Time,MP-1(��Sv/h),MP-2(��Sv/h),MP-3(��Sv/h),MP-4(��Sv/h),MP-5(��Sv/h),MP-6(��Sv/h),MP-7(��Sv/h),MP-8(��Sv/h),����,����(m/s),���J
2016/11/24,00:00,1.087,1.843,1.235,2.074,1.430,0.570,1.040,0.963,�k��,6.1,��
2016/11/24,00:10,1.086,1.847,1.233,2.073,1.432,0.570,1.040,0.964,�k��,5.7,��
2016/11/24,00:20,1.089,1.843,1.233,2.071,1.429,0.570,1.039,0.963,�k�k��,4.1,��
2016/11/24,00:30,1.088,1.844,1.233,2.073,1.429,0.569,1.040,0.963,�k��,4.9,��
2016/11/24,00:40,1.091,1.843,1.236,2.075,1.433,0.570,1.040,0.963,�k�k��,4.4,��
2016/11/24,00:50,1.088,1.841,1.234,2.075,1.430,0.571,1.041,0.964,�k��,4.8,��
2016/11/24,01:00,1.086,1.841,1.233,2.073,1.431,0.570,1.038,0.964,�k�k��,2.9,��
2016/11/24,01:10,1.089,1.844,1.235,2.075,1.433,0.569,1.040,0.963,�k��,3.4,��
2016/11/24,01:20,1.089,1.845,1.234,2.073,1.432,0.570,1.040,0.966,�k��,4.2,��
2016/11/24,01:30,1.089,1.844,1.234,2.073,1.432,0.571,1.041,0.963,�k��,4.5,��
2016/11/24,01:40,1.087,1.845,1.234,2.071,1.434,0.570,1.041,0.964,�k��,4.4,��
2016/11/24,01:50,1.089,1.844,1.235,2.071,1.431,0.570,1.039,0.965,���k��,3.8,��
2016/11/24,02:00,1.089,1.843,1.236,2.072,1.431,0.571,1.041,0.965,�k��,3.8,��
2016/11/24,02:10,1.090,1.845,1.233,2.076,1.430,0.572,1.040,0.965,�k��,4.5,��
2016/11/24,02:20,1.089,1.845,1.234,2.072,1.430,0.569,1.040,0.964,�k�k��,4.2,��
2016/11/24,02:30,1.087,1.841,1.235,2.072,1.432,0.570,1.040,0.964,�k�k��,3.9,��
2016/11/24,02:40,1.088,1.843,1.235,2.075,1.433,0.570,1.041,0.966,�k�k��,3.7,��
2016/11/24,02:50,1.089,1.851,1.235,2.074,1.433,0.570,1.039,0.963,�k�k��,4.8,��
2016/11/24,03:00,1.089,1.844,1.235,2.073,1.434,0.571,1.039,0.964,�k�k��,5.7,��
2016/11/24,03:10,1.090,1.844,1.236,2.073,1.432,0.570,1.041,0.965,�k�k��,2.8,��
2016/11/24,03:20,1.088,1.844,1.234,2.070,1.432,0.569,1.040,0.964,�k��,1.9,��
2016/11/24,03:30,1.088,1.844,1.235,2.072,1.432,0.571,1.041,0.964,�k��,3.2,��
2016/11/24,03:40,1.091,1.843,1.234,2.074,1.430,0.571,1.041,0.965,�k��,3.6,��
2016/11/24,03:50,1.088,1.842,1.234,2.073,1.433,0.571,1.039,0.963,�k�k��,4.1,��
2016/11/24,04:00,1.088,1.844,1.234,2.070,1.431,0.571,1.040,0.964,�k��,4.5,��
2016/11/24,04:10,1.088,1.844,1.233,2.072,1.432,0.569,1.039,0.964,�k��,5.1,��
2016/11/24,04:20,1.089,1.845,1.235,2.073,1.432,0.570,1.039,0.963,�k�k��,6.1,��
2016/11/24,04:30,1.088,1.845,1.234,2.072,1.433,0.571,1.039,0.964,�k�k��,5.8,��
2016/11/24,04:40,1.089,1.846,1.234,2.072,1.432,0.570,1.039,0.963,�k��,6.2,��
2016/11/24,04:50,1.090,1.847,1.235,2.076,1.432,0.570,1.040,0.965,�k�k��,6.1,��
2016/11/24,05:00,1.087,1.845,1.235,2.075,1.433,0.572,1.042,0.964,�k�k��,5.8,��
2016/11/24,05:10,1.088,1.846,1.235,2.076,1.432,0.569,1.040,0.964,�k�k��,5.9,��
2016/11/24,05:20,1.089,1.846,1.233,2.074,1.433,0.569,1.040,0.963,�k�k��,6.5,��
2016/11/24,05:30,1.089,1.845,1.233,2.073,1.433,0.570,1.039,0.963,�k�k��,6.0,��
2016/11/24,05:40,1.087,1.846,1.234,2.075,1.432,0.569,1.041,0.964,�k�k��,5.9,��
2016/11/24,05:50,1.089,1.845,1.235,2.074,1.432,0.571,1.039,0.962,�k�k��,4.9,��
2016/11/24,06:00,1.088,1.848,1.234,2.074,1.432,0.571,1.040,0.962,�k��,5.4,��
2016/11/24,06:10,1.089,1.849,1.234,2.075,1.433,0.569,1.040,0.962,�k��,5.6,��
2016/11/24,06:20,1.089,1.846,1.233,2.077,1.432,0.572,1.040,0.964,�k�k��,5.2,��
2016/11/24,06:30,1.090,1.845,1.229,2.074,1.433,0.570,1.040,0.964,�k�k��,6.2,��
2016/11/24,06:40,1.088,1.841,1.235,2.074,1.434,0.570,1.040,0.966,�k�k��,5.8,��
2016/11/24,06:50,1.089,1.847,1.238,2.077,1.432,0.572,1.040,0.964,�k,5.3,�L
2016/11/24,07:00,1.088,1.844,1.237,2.078,1.431,0.571,1.041,0.964,�k�k��,4.8,�L
2016/11/24,07:10,1.091,1.846,1.236,2.078,1.434,0.574,1.040,0.963,�k�k��,5.5,�L
2016/11/24,07:20,1.087,1.841,1.239,2.076,1.430,0.572,1.041,0.964,�k�k��,4.8,�L
2016/11/24,07:30,1.087,1.838,1.233,2.076,1.431,0.570,1.041,0.960,�k�k��,5.6,�L
2016/11/24,07:40,1.084,1.832,1.225,2.070,1.426,0.571,1.037,0.962,�k�k��,5.0,�L
2016/11/24,07:50,1.083,1.824,1.219,2.068,1.419,0.571,1.037,0.960,�k��,4.2,�L
2016/11/24,08:00,1.080,1.825,1.215,2.063,1.416,0.570,1.035,0.960,�k��,4.0,�L
2016/11/24,08:10,1.078,1.815,1.210,2.058,1.410,0.567,1.035,0.959,�k��,5.5,�L
2016/11/24,08:20,1.075,1.810,1.206,2.053,1.404,0.569,1.033,0.958,�k��,3.8,�L
2016/11/24,08:30,1.069,1.803,1.201,2.049,1.402,0.567,1.031,0.957,�k�k��,4.4,�L
2016/11/24,08:40,1.068,1.797,1.201,2.041,1.396,0.567,1.030,0.953,�k��,6.5,�L
2016/11/24,08:50,1.067,1.796,1.199,2.035,1.393,0.567,1.027,0.954,�k��,5.9,�L
2016/11/24,09:00,1.067,1.792,1.202,2.032,1.385,0.566,1.026,0.954,�k��,5.6,�L
2016/11/24,09:10,1.062,1.790,1.205,2.028,1.386,0.564,1.025,0.952,�k�k��,4.9,�L
2016/11/24,09:20,1.062,1.784,1.206,2.023,1.383,0.565,1.025,0.952,�k��,6.1,�L
2016/11/24,09:30,1.059,1.778,1.205,2.021,1.376,0.564,1.024,0.953,�k��,5.2,�L
2016/11/24,09:40,1.057,1.781,1.204,2.017,1.379,0.563,1.024,0.953,�k��,4.9,�L
2016/11/24,09:50,1.057,1.775,1.202,2.014,1.373,0.563,1.024,0.951,�k��,6.7,�L
2016/11/24,10:00,1.055,1.776,1.199,2.013,1.370,0.562,1.021,0.951,�k�k��,6.6,�L
2016/11/24,10:10,1.055,1.776,1.202,2.009,1.359,0.562,1.019,0.949,�k�k��,7.2,�L
2016/11/24,10:20,1.055,1.777,1.196,2.006,1.365,0.564,1.021,0.949,�k�k��,6.7,�L
2016/11/24,10:30,1.055,1.773,1.197,2.005,1.369,0.562,1.022,0.951,�k�k��,9.3,�L
2016/11/24,10:40,1.056,1.779,1.198,2.003,1.370,0.562,1.021,0.950,�k�k��,7.4,�L
2016/11/24,10:50,1.058,1.779,1.195,2.006,1.375,0.560,1.024,0.951,�k�k��,6.9,�L
2016/11/24,11:00,1.059,1.786,1.201,2.009,1.379,0.560,1.024,0.952,�k��,7.0,�L
2016/11/24,11:10,1.063,1.787,1.199,2.009,1.375,0.563,1.023,0.950,�k��,5.2,�L
2016/11/24,11:20,1.062,1.787,1.206,2.014,1.383,0.566,1.028,0.953,�k�k��,6.1,�L
2016/11/24,11:30,1.063,1.792,1.207,2.018,1.383,0.565,1.025,0.952,�k��,6.6,�L
2016/11/24,11:40,1.061,1.792,1.208,2.010,1.387,0.564,1.026,0.952,�k��,6.3,�L
2016/11/24,11:50,1.061,1.792,1.208,2.019,1.388,0.565,1.026,0.953,�k��,7.3,�L
2016/11/24,12:00,1.063,1.792,1.204,2.015,1.389,0.564,1.025,0.953,�k��,6.8,�L
2016/11/24,12:10,1.066,1.793,1.205,2.018,1.387,0.563,1.026,0.952,�k��,7.7,�L
2016/11/24,12:20,1.064,1.789,1.205,2.018,1.388,0.563,1.026,0.954,�k��,7.1,�L
2016/11/24,12:30,1.063,1.791,1.205,2.012,1.386,0.564,1.025,0.953,�k��,7.4,�L
2016/11/24,12:40,1.060,1.790,1.204,2.015,1.388,0.563,1.024,0.953,�k��,6.7,�L
2016/11/24,12:50,1.064,1.789,1.203,2.016,1.388,0.564,1.027,0.954,�k�k��,6.5,�L
2016/11/24,13:00,1.062,1.790,1.203,2.018,1.388,0.564,1.026,0.953,�k��,6.5,�L
2016/11/24,13:10,1.065,1.790,1.204,2.020,1.389,0.563,1.027,0.953,�k�k��,7.3,�L
2016/11/24,13:20,1.066,1.790,1.203,2.015,1.391,0.563,1.025,0.955,�k�k��,6.8,��
2016/11/24,13:30,1.066,1.795,1.201,2.019,1.392,0.564,1.025,0.955,�k��,5.6,��
2016/11/24,13:40,1.067,1.793,1.201,2.019,1.393,0.565,1.025,0.954,�k�k��,5.6,��
2016/11/24,13:50,1.068,1.793,1.203,2.019,1.391,0.565,1.026,0.954,�k��,6.2,��
2016/11/24,14:00,1.066,1.796,1.203,2.021,1.391,0.562,1.025,0.955,�k�k��,4.9,��
2016/11/24,14:10,1.066,1.796,1.204,2.023,1.391,0.564,1.025,0.954,�k�k��,3.6,��
2016/11/24,14:20,1.069,1.797,1.205,2.022,1.395,0.563,1.027,0.956,�k�k��,3.7,��
2016/11/24,14:30,1.068,1.797,1.207,2.022,1.394,0.562,1.028,0.954,�k��,4.4,��
2016/11/24,14:40,1.070,1.796,1.211,2.024,1.393,0.564,1.029,0.954,�k��,4.4,��
2016/11/24,14:50,1.070,1.798,1.209,2.026,1.392,0.563,1.027,0.954,�k��,3.7,��
2016/11/24,15:00,1.069,1.800,1.209,2.023,1.392,0.564,1.027,0.954,�k��,4.8,��
2016/11/24,15:10,1.069,1.799,1.211,2.025,1.398,0.564,1.027,0.954,�k��,3.8,��
2016/11/24,15:20,1.071,1.802,1.209,2.024,1.398,0.563,1.029,0.955,�k��,5.1,��
2016/11/24,15:30,1.071,1.801,1.209,2.026,1.396,0.563,1.027,0.955,�k��,5.4,��
2016/11/24,15:40,1.071,1.800,1.212,2.025,1.398,0.564,1.029,0.954,�k��,5.6,��
2016/11/24,15:50,1.072,1.801,1.211,2.025,1.398,0.564,1.029,0.956,�k��,5.6,��
2016/11/24,16:00,1.069,1.802,1.209,2.028,1.395,0.564,1.029,0.956,�k��,5.4,��
2016/11/24,16:10,1.071,1.803,1.209,2.023,1.397,0.563,1.029,0.955,�k��,5.0,��
2016/11/24,16:20,1.070,1.804,1.211,2.028,1.398,0.565,1.031,0.953,�k��,5.6,��
2016/11/24,16:30,1.072,1.803,1.213,2.027,1.399,0.565,1.029,0.952,�k��,5.6,��
2016/11/24,16:40,1.072,1.804,1.210,2.027,1.396,0.564,1.030,0.955,�k��,5.1,��
2016/11/24,16:50,1.071,1.803,1.212,2.027,1.397,0.564,1.028,0.955,�k��,4.7,��
2016/11/24,17:00,1.073,1.802,1.210,2.029,1.399,0.562,1.027,0.955,�k��,4.3,��
2016/11/24,17:10,1.070,1.800,1.213,2.028,1.400,0.565,1.028,0.954,�k��,4.9,��
2016/11/24,17:20,1.073,1.802,1.210,2.032,1.399,0.563,1.027,0.954,�k��,5.1,��
2016/11/24,17:30,1.070,1.802,1.210,2.029,1.398,0.566,1.029,0.958,���k��,4.5,��
2016/11/24,17:40,1.069,1.802,1.211,2.033,1.398,0.565,1.028,0.953,�k��,4.9,��
2016/11/24,17:50,1.071,1.803,1.212,2.027,1.402,0.564,1.028,0.955,���k��,4.4,��
2016/11/24,18:00,1.073,1.804,1.212,2.031,1.400,0.564,1.029,0.953,�k��,4.2,��
2016/11/24,18:10,1.071,1.801,1.210,2.031,1.402,0.563,1.028,0.956,�k��,4.9,��
2016/11/24,18:20,1.071,1.805,1.211,2.030,1.400,0.565,1.028,0.956,�k��,4.7,��
2016/11/24,18:30,1.071,1.804,1.212,2.030,1.400,0.565,1.030,0.955,�k��,4.1,��
2016/11/24,18:40,1.071,1.806,1.210,2.030,1.402,0.566,1.028,0.956,�k��,5.5,��
2016/11/24,18:50,1.070,1.806,1.213,2.031,1.400,0.565,1.029,0.955,�k��,4.9,��
2016/11/24,19:00,1.071,1.804,1.212,2.032,1.399,0.564,1.029,0.955,�k��,5.6,��
2016/11/24,19:10,1.071,1.805,1.210,2.032,1.399,0.565,1.027,0.956,�k��,5.3,��
2016/11/24,19:20,1.072,1.805,1.209,2.031,1.401,0.563,1.028,0.953,�k��,5.7,��
2016/11/24,19:30,1.071,1.805,1.213,2.033,1.400,0.564,1.031,0.956,�k��,6.0,��
2016/11/24,19:40,1.072,1.805,1.211,2.033,1.403,0.564,1.030,0.953,�k��,5.9,��
2016/11/24,19:50,1.070,1.805,1.214,2.033,1.401,0.562,1.028,0.954,�k��,5.9,��
2016/11/24,20:00,1.072,1.808,1.210,2.033,1.400,0.564,1.031,0.956,�k��,5.2,��
2016/11/24,20:10,1.071,1.807,1.212,2.033,1.402,0.565,1.029,0.956,�k��,6.0,��
2016/11/24,20:20,1.074,1.807,1.212,2.030,1.399,0.564,1.028,0.955,�k��,5.2,��
2016/11/24,20:30,1.071,1.807,1.210,2.032,1.399,0.564,1.029,0.954,�k��,5.9,��
2016/11/24,20:40,1.070,1.807,1.212,2.034,1.403,0.563,1.028,0.956,�k��,5.4,��
2016/11/24,20:50,1.070,1.806,1.212,2.031,1.401,0.564,1.029,0.955,�k��,5.7,��
2016/11/24,21:00,1.072,1.805,1.211,2.030,1.401,0.565,1.030,0.954,�k��,5.5,��
2016/11/24,21:10,1.070,1.804,1.212,2.033,1.400,0.563,1.028,0.955,�k��,5.6,��
2016/11/24,21:20,1.073,1.806,1.212,2.033,1.402,0.562,1.028,0.957,�k�k��,5.1,��
2016/11/24,21:30,1.072,1.806,1.211,2.034,1.398,0.566,1.031,0.955,�k�k��,5.7,��
2016/11/24,21:40,1.069,1.802,1.214,2.036,1.401,0.564,1.028,0.955,�k�k��,5.6,��
2016/11/24,21:50,1.072,1.806,1.213,2.031,1.401,0.565,1.030,0.956,�k�k��,6.4,��
2016/11/24,22:00,1.072,1.806,1.212,2.034,1.402,0.565,1.029,0.956,�k��,5.8,��
2016/11/24,22:10,1.071,1.805,1.213,2.031,1.401,0.565,1.028,0.956,�k��,5.5,��
2016/11/24,22:20,1.072,1.808,1.212,2.033,1.402,0.567,1.030,0.955,�k��,5.9,��
2016/11/24,22:30,1.070,1.806,1.210,2.032,1.401,0.565,1.028,0.956,�k��,5.9,��
2016/11/24,22:40,1.071,1.808,1.210,2.034,1.400,0.566,1.030,0.957,�k��,5.7,��
2016/11/24,22:50,1.070,1.806,1.210,2.035,1.403,0.566,1.028,0.955,�k�k��,6.2,��
2016/11/24,23:00,1.070,1.808,1.213,2.034,1.401,0.565,1.028,0.957,�k�k��,5.7,��
2016/11/24,23:10,1.070,1.806,1.211,2.034,1.403,0.565,1.030,0.956,�k�k��,6.8,��
2016/11/24,23:20,1.069,1.805,1.212,2.034,1.402,0.565,1.029,0.955,�k�k��,7.6,��
2016/11/24,23:30,1.072,1.806,1.212,2.034,1.402,0.566,1.029,0.955,�k�k��,6.7,��
2016/11/24,23:40,1.070,1.808,1.213,2.034,1.403,0.567,1.030,0.955,�k�k��,6.0,��
2016/11/24,23:50,1.070,1.806,1.213,2.034,1.399,0.564,1.028,0.956,�k�k��,5.2,��
